GFSWCAN_700_rhum_063.txt.gz
RH
98 100 100 99 96 93 95 94 95 96 93 83 80 84 92 96 96 97 97 96 96 98 97 97 95 96 89 100 92 79 82 72 76 79 90 96 92 87 79 68 61 78 84 87 99 93 80 54 71 67 98 93 68 54
93 95 95 96 97 97 96 96 97 97 98 100 97 100 100 92 88 96 96 95 96 98 95 93 94 96 97 98 95 92 73 56 51 58 65 80 71 83 77 73 72 65 60 59 60 50 46 55 51 57 69 95 90 86
99 98 95 99 97 93 99 94 100 95 98 95 92 98 100 98 99 92 99 98 97 95 88 94 90 97 99 94 97 100 84 73 70 55 59 61 69 67 73 74 69 65 64 68 66 57 41 47 46 50 60 68 84 88
99 94 94 83 82 77 74 76 83 93 94 96 96 98 95 96 97 96 89 79 96 91 94 76 76 90 98 97 98 95 90 81 74 70 79 80 74 79 75 71 65 58 53 49 51 46 39 35 46 44 59 54 72 84
97 90 78 77 78 85 93 97 96 97 95 93 93 92 94 94 98 98 97 92 80 88 87 73 63 84 97 95 88 98 99 93 90 88 93 86 78 84 92 96 78 72 70 60 56 63 62 59 49 56 64 38 65 62
82 73 81 85 93 88 90 92 95 85 86 96 97 92 90 95 98 98 98 99 94 92 89 84 69 56 75 90 99 100 95 97 94 98 96 93 78 98 96 75 82 94 69 64 66 57 62 60 62 60 54 44 50 71
81 79 97 97 92 87 81 80 86 89 82 92 96 97 89 93 97 88 92 49 81 97 100 96 95 86 84 93 86 70 85 94 98 98 92 82 76 87 98 94 77 68 59 58 56 66 56 64 75 58 51 51 58 64
87 94 96 94 82 78 83 87 96 96 91 96 97 99 99 98 97 95 80 59 79 100 97 97 96 93 88 95 98 89 94 98 100 95 95 89 74 90 99 96 92 78 70 78 69 84 82 73 78 63 52 52 56 63
85 97 93 97 99 80 95 91 95 98 100 96 97 90 94 94 99 91 96 89 89 90 96 98 91 81 87 97 94 96 96 99 96 93 82 90 98 96 96 96 91 86 78 77 83 71 98 94 94 80 71 64 65 70
84 90 96 89 96 100 97 97 89 98 83 81 81 91 98 98 97 95 98 92 95 97 95 89 68 79 87 95 94 95 96 93 91 95 95 98 98 94 87 85 92 97 95 92 92 89 83 77 67 68 64 64 66 68
88 90 93 97 97 98 98 99 91 89 96 96 97 82 89 97 97 97 96 97 97 95 84 68 72 73 95 94 95 91 96 93 96 99 100 100 100 98 95 94 86 76 83 90 96 97 84 92 90 86 80 80 84 87
83 94 98 99 97 98 97 98 98 89 92 97 87 96 95 84 77 80 85 84 82 75 69 74 72 84 86 87 78 88 97 95 99 99 98 98 100 92 88 88 92 88 82 90 91 92 89 89 91 90 83 75 77 72
93 93 95 96 94 90 84 85 99 99 95 88 86 76 72 66 68 72 100 95 95 75 71 78 94 75 77 84 93 95 100 100 97 98 96 95 95 90 87 88 84 78 87 100 100 100 95 87 94 94 88 94 97 91
93 93 90 90 82 79 83 98 95 82 79 71 68 72 78 84 87 96 94 97 99 96 87 79 99 91 93 97 98 97 97 98 96 94 97 99 96 97 100 99 99 98 98 98 100 99 100 100 100 100 100 100 99 98
93 94 91 90 91 87 93 94 90 71 58 61 71 79 91 96 100 100 100 100 98 99 100 99 99 97 96 96 96 96 98 96 99 100 100 100 100 99 97 97 98 96 97 98 99 98 96 96 96 97 97 97 96 94
71 67 61 83 93 94 88 80 76 77 71 78 91 99 97 98 100 100 100 99 96 92 88 96 94 96 96 95 96 96 95 96 99 95 96 96 96 96 96 97 96 96 97 96 96 95 95 96 96 97 100 97 94 95
85 93 94 90 62 67 68 72 80 70 86 94 95 98 98 100 97 99 100 98 93 86 93 94 98 94 97 95 94 96 96 97 96 96 97 98 97 96 96 97 97 98 96 93 93 94 95 95 96 96 96 94 95 94
88 86 90 99 77 55 52 66 77 94 95 96 95 93 93 94 97 94 95 92 88 89 94 95 88 89 94 96 99 99 99 97 97 96 96 96 97 96 97 96 97 96 95 96 95 95 94 93 94 92 88 86 85 84
78 75 74 83 84 72 70 86 95 94 96 96 96 95 96 92 92 90 86 88 94 99 99 84 86 81 90 92 90 94 94 96 96 96 96 95 95 96 97 97 95 94 95 92 88 93 96 96 92 89 87 86 85 84
88 84 81 87 83 77 82 92 90 94 98 97 99 98 98 98 100 99 99 99 99 96 94 91 93 94 91 91 95 95 95 96 98 97 97 96 96 96 96 94 95 96 96 98 99 97 92 83 72 56 43 32 25 23
90 87 86 81 78 66 69 80 94 100 98 98 98 93 92 98 99 97 94 96 96 71 80 88 87 86 90 93 98 98 96 96 97 97 98 100 99 99 100 100 100 100 94 76 56 41 31 26 23 21 20 19 18 17
88 82 80 87 48 53 69 71 66 73 86 91 90 94 94 89 78 73 67 52 68 83 80 83 83 85 89 90 91 92 92 92 97 100 99 96 93 85 75 64 51 40 30 26 24 23 22 21 20 18 17 17 17 17
64 57 58 35 36 50 60 72 57 54 55 50 46 43 45 47 41 36 40 46 67 83 88 91 92 95 99 95 94 91 83 80 81 76 67 56 48 44 40 37 35 33 30 26 22 19 17 18 19 20 18 15 12 12
33 23 20 21 28 39 44 40 32 32 38 34 33 38 40 40 37 39 50 75 82 95 99 96 92 91 81 76 76 76 70 61 55 51 47 43 40 38 37 35 30 23 18 18 20 21 21 18 14 12 13 15 16 17
18 16 18 22 22 21 19 18 15 16 13 13 17 20 22 21 26 35 32 34 46 58 62 61 64 71 75 82 85 82 77 65 53 46 42 40 40 38 29 18 16 18 22 23 20 15 13 14 16 16 18 21 24 26
10 12 10 13 12 10 9 9 9 7 6 6 8 9 12 11 11 14 22 23 30 38 43 50 62 76 85 89 91 86 62 49 47 49 50 42 25 16 18 24 27 24 18 15 15 17 18 19 21 24 25 24 22 21
8 9 8 8 7 7 8 7 6 5 4 5 5 5 6 6 7 10 11 16 23 27 35 48 67 82 89 89 72 56 50 51 52 43 24 15 21 29 28 24 19 17 17 18 18 20 22 24 24 22 19 20 21 25
6 6 7 6 6 7 7 6 5 5 5 5 5 5 5 6 7 9 10 12 16 25 36 47 55 58 56 51 51 55 54 42 19 16 25 30 30 27 23 20 20 20 20 20 23 25 24 21 18 19 20 21 22 25
7 7 7 6 7 6 6 6 5 5 5 4 4 4 5 6 7 9 11 12 15 20 26 31 35 39 42 42 40 32 17 17 30 33 33 33 30 25 22 22 21 21 22 23 24 21 17 18 19 20 20 21 23 24
8 7 7 6 6 7 6 5 5 4 4 5 5 6 6 7 8 7 8 9 11 14 17 20 24 26 23 19 15 21 31 32 32 34 34 30 27 25 23 22 22 23 24 24 19 17 18 19 20 21 23 23 23 24
7 6 6 6 7 6 5 5 5 6 6 6 7 7 7 7 8 8 10 11 12 13 14 16 16 14 17 27 30 30 31 32 34 33 31 29 27 25 23 23 23 24 23 18 19 20 20 20 22 23 23 23 23 24
6 6 6 7 6 5 6 6 7 7 7 8 8 8 8 8 10 12 13 14 14 14 15 18 23 29 32 31 30 31 34 35 34 32 31 29 27 26 26 26 26 23 19 20 21 21 21 23 24 25 24 24 25 26
7 7 7 6 5 6 7 6 8 9 9 9 9 8 9 10 12 14 17 19 21 24 26 27 28 29 29 30 32 35 35 34 32 31 30 29 28 28 28 28 23 20 22 22 21 21 22 24 25 25 25 26 27 28

GFSWCAN_700_rhum_069.txt.gz
RH
96 91 92 92 94 92 91 96 93 93 96 94 95 95 97 96 97 97 92 90 95 98 86 81 88 93 96 94 93 93 97 96 97 98 96 95 85 78 73 78 91 76 94 97 100 99 83 57 60 63 56 46 47 50
91 96 97 97 94 91 94 99 97 95 94 97 96 95 96 97 96 97 96 94 98 98 98 92 82 96 94 94 97 94 88 93 94 92 93 86 75 73 69 81 58 78 68 64 72 62 58 58 66 50 36 47 46 45
97 96 99 97 93 91 93 97 96 99 93 96 95 95 95 96 97 96 96 94 98 97 92 93 85 83 92 94 97 96 94 95 88 85 88 83 77 70 72 71 55 63 60 66 62 64 48 45 57 62 61 64 46 40
96 96 92 76 72 74 74 100 99 96 96 93 95 95 96 96 96 96 96 94 98 97 97 88 83 92 94 97 96 95 96 90 94 95 96 98 85 70 66 61 59 56 62 62 62 56 55 53 65 58 49 48 63 61
97 88 79 93 85 87 90 96 99 100 94 99 97 96 95 96 96 96 97 97 95 96 96 94 79 79 95 92 89 95 93 96 97 99 97 97 96 85 76 73 72 64 60 57 57 65 70 65 63 62 69 60 53 58
86 91 96 86 80 78 75 85 100 96 100 95 96 96 96 97 97 97 97 97 94 97 95 97 90 86 94 96 94 98 100 98 97 96 96 96 96 93 92 87 72 62 59 62 65 68 65 69 84 79 75 63 51 51
97 94 96 88 91 85 84 87 100 98 96 98 96 92 97 96 95 96 92 82 92 97 95 93 88 73 73 100 88 98 98 96 96 96 97 98 91 95 93 80 70 68 68 64 60 63 68 70 76 77 76 72 62 59
98 97 88 87 96 82 90 96 97 96 97 96 98 95 96 97 98 97 95 92 96 96 95 93 83 63 64 83 98 100 96 97 98 97 96 95 96 97 96 89 78 84 76 63 58 75 77 79 71 66 69 72 69 67
98 95 96 87 97 96 94 97 95 92 97 96 97 97 97 98 97 96 96 96 96 96 90 95 90 97 70 93 87 91 97 98 96 100 97 94 89 92 78 74 80 71 53 64 81 80 84 92 77 78 99 100 91 90
93 84 92 93 99 91 96 92 87 96 96 96 96 97 98 97 97 94 97 96 100 100 80 87 94 97 90 82 94 97 98 99 94 86 94 99 98 89 82 82 78 69 72 83 72 79 98 96 100 99 98 98 99 96
98 94 84 95 97 97 90 97 97 97 97 93 92 85 97 95 97 92 80 89 95 92 86 78 78 98 97 99 95 90 86 92 91 98 98 91 95 95 92 93 94 91 78 77 80 82 90 96 98 97 97 97 98 98
91 92 97 94 94 98 74 90 95 96 83 78 66 80 85 96 86 96 94 97 96 99 100 100 98 92 93 97 98 87 95 94 98 100 100 94 95 95 94 92 90 90 92 92 90 95 93 99 98 96 96 96 98 97
95 82 83 87 92 95 91 90 98 80 79 84 95 98 90 95 96 95 100 94 97 100 100 100 100 96 96 97 92 95 93 97 96 96 97 92 89 89 93 97 99 98 97 97 98 95 96 99 96 95 96 96 95 95
96 93 86 86 95 97 100 98 94 96 93 92 81 75 77 74 78 82 71 79 94 100 100 100 96 98 94 90 96 95 96 98 97 95 97 96 96 96 98 98 97 98 98 96 94 96 98 97 96 96 96 96 96 96
96 95 94 95 96 92 93 96 97 95 87 70 60 60 72 75 83 86 86 84 94 100 100 98 98 88 78 88 87 95 96 96 98 100 100 99 98 97 96 96 97 96 96 96 96 97 97 96 96 97 96 96 96 95
87 93 96 93 95 94 90 86 84 83 74 63 62 71 84 96 100 99 96 90 91 100 100 93 94 87 94 90 95 95 95 97 98 97 98 96 97 97 97 96 97 97 97 97 96 96 96 96 96 96 96 96 96 96
95 98 91 83 94 96 91 82 81 71 72 70 79 87 92 96 96 98 99 100 99 100 98 95 97 94 95 95 95 95 96 96 97 96 96 96 97 97 97 97 97 96 96 96 96 96 96 96 96 97 97 96 96 97
92 94 97 94 93 93 92 90 83 80 83 84 92 97 100 98 97 97 97 97 97 96 96 95 95 95 95 95 96 96 96 96 96 96 97 96 97 96 96 97 96 96 96 96 95 96 97 96 96 96 95 95 92 78
85 94 95 88 88 93 94 95 93 85 87 88 90 94 97 94 93 92 98 97 95 94 94 95 95 95 94 94 94 91 94 96 96 95 95 96 96 96 96 97 97 97 97 96 97 98 97 97 96 87 58 33 24 21
94 96 95 96 94 93 97 91 91 83 91 92 92 95 98 98 100 98 94 91 96 95 94 92 91 92 86 91 95 98 99 100 100 100 99 98 97 97 97 97 97 97 97 97 97 95 71 47 32 26 22 20 18 18
96 95 92 94 97 94 82 89 94 96 97 94 99 99 95 94 93 92 96 96 96 94 84 86 85 86 92 94 95 96 99 100 100 100 100 99 98 98 98 98 98 98 95 70 46 35 28 26 23 20 18 18 18 17
73 77 77 79 67 81 93 90 87 89 93 97 95 89 94 97 94 91 85 76 68 76 78 88 93 96 97 97 99 99 100 100 98 97 96 96 96 95 90 77 59 49 39 35 31 26 22 19 19 19 19 17 14 13
53 43 35 66 73 92 99 98 90 94 97 100 96 94 92 79 68 66 57 46 56 75 85 89 91 92 98 100 100 99 98 90 81 76 70 63 56 51 47 43 41 37 32 26 22 20 20 21 20 17 14 14 16 18
36 25 20 24 46 69 74 78 82 81 81 76 70 70 60 48 36 33 35 44 44 51 66 74 74 76 72 72 67 68 69 70 70 68 58 47 41 40 40 39 34 25 20 20 22 23 21 16 14 15 16 20 22 19
22 21 19 20 23 36 47 52 52 49 40 33 25 24 24 20 17 28 27 25 28 30 36 41 43 47 54 66 76 82 86 82 67 53 46 47 47 45 33 20 18 22 25 25 20 16 16 18 18 22 24 22 18 17
15 16 13 13 14 15 17 21 24 17 11 9 10 8 10 8 8 10 15 19 24 30 37 45 53 62 69 72 74 72 61 51 47 48 50 43 27 19 22 28 29 26 20 18 18 20 20 23 25 24 20 18 19 19
11 12 8 8 7 7 7 7 7 7 6 6 6 6 6 5 6 8 11 17 22 26 28 37 49 58 60 55 45 44 45 48 49 37 20 19 27 32 32 28 23 20 20 21 22 23 25 26 23 18 18 19 20 20
9 8 8 7 7 7 7 6 5 5 5 5 5 4 4 5 5 6 9 11 16 21 24 25 27 29 30 31 34 38 36 26 16 19 31 33 34 33 29 25 23 22 22 23 24 26 26 22 19 20 20 20 20 20
8 8 8 8 8 8 6 6 6 6 6 5 5 4 4 4 5 6 8 9 9 10 12 13 14 17 19 20 22 17 16 24 32 32 32 33 34 31 28 26 24 24 24 25 26 26 22 19 20 20 20 20 21 21
8 8 8 8 8 7 8 6 6 5 4 4 4 4 4 5 5 6 7 8 9 10 11 12 13 13 14 15 20 28 32 31 32 33 35 35 34 32 30 28 26 26 26 27 28 22 20 21 21 21 22 22 22 22
8 8 8 8 8 8 6 5 4 4 4 4 4 5 5 6 7 7 8 10 11 13 14 16 18 21 25 29 31 30 31 32 35 36 36 34 33 32 31 30 29 29 29 29 23 21 22 22 22 22 23 23 23 23
8 8 7 8 8 6 5 4 5 5 5 6 6 6 7 7 8 9 10 12 14 16 19 22 25 27 28 28 29 31 33 35 37 37 37 34 33 33 33 32 32 31 31 23 22 23 23 23 24 25 25 24 24 24
8 7 8 8 6 5 5 5 6 6 6 7 7 7 8 8 9 11 13 15 18 20 22 24 25 26 28 30 32 34 37 39 40 40 39 38 37 37 37 36 34 32 24 24 26 25 25 26 27 26 26 25 25 26

GFSWCAN_700_rhum_072.txt.gz
RH
93 92 97 96 97 98 96 93 92 88 89 93 94 97 96 96 97 98 94 84 86 92 51 65 92 97 92 67 94 94 96 96 97 97 100 91 88 78 70 76 98 95 95 96 90 78 80 64 56 72 82 58 42 37
93 96 90 91 92 92 95 98 94 91 93 97 94 96 97 96 96 97 97 89 90 100 72 70 59 76 80 77 94 95 92 87 95 96 96 96 93 83 72 64 74 91 79 75 73 68 74 69 80 88 74 59 44 37
93 95 95 92 88 89 80 85 95 90 92 96 96 96 100 96 96 95 97 95 96 97 83 76 68 56 74 94 96 96 94 96 95 93 97 98 96 85 83 70 64 71 70 81 74 68 66 66 67 51 43 42 50 57
96 98 94 91 81 81 83 82 75 83 99 97 100 98 97 96 96 97 95 92 97 98 96 81 76 86 80 84 79 90 96 96 97 96 96 96 98 91 83 75 72 64 67 72 68 72 72 56 63 41 43 48 50 62
97 90 87 86 89 88 82 81 90 100 99 96 96 97 96 96 96 97 96 93 93 88 95 86 90 70 70 71 92 95 96 96 97 97 96 92 90 94 77 78 80 76 69 74 68 71 69 49 48 54 66 62 53 60
90 90 91 88 83 80 78 88 73 94 96 97 98 94 96 96 95 96 98 98 91 96 97 92 87 76 70 72 94 96 93 97 97 97 94 92 86 97 95 93 86 85 63 61 62 54 56 59 59 56 64 72 81 76
88 84 95 85 85 87 84 94 84 92 96 97 97 97 97 95 94 96 94 74 88 97 97 94 90 89 86 86 96 97 96 95 95 98 99 90 86 96 96 95 89 77 70 69 63 60 61 60 54 50 61 72 73 71
85 87 91 83 90 88 91 90 90 95 97 97 95 97 96 96 97 97 89 84 88 99 97 93 94 87 74 94 98 97 97 96 96 96 94 90 96 96 97 86 76 75 81 84 67 69 65 64 69 69 70 75 77 71
96 94 96 96 93 90 95 94 93 97 97 98 96 97 97 96 97 94 94 96 96 97 96 89 96 93 78 95 97 95 97 98 93 96 96 96 99 98 91 81 82 74 76 75 71 60 71 77 82 84 93 100 99 98
97 88 96 94 91 88 85 94 96 96 94 91 98 96 97 97 94 94 98 98 97 96 91 89 82 100 100 96 100 97 97 98 97 96 97 97 96 85 82 77 75 80 84 85 73 74 80 73 81 94 92 98 100 100
95 86 96 93 96 96 93 97 93 90 92 98 96 93 91 96 97 96 94 92 93 94 90 95 87 92 98 96 91 95 96 88 89 96 97 97 96 98 98 94 96 96 93 90 89 85 82 74 83 96 95 96 98 96
95 94 97 95 92 95 97 96 88 94 86 75 83 89 95 95 96 95 98 95 89 93 84 77 71 81 88 93 94 97 96 91 97 96 99 93 83 80 80 81 86 87 88 92 91 93 95 93 89 93 96 100 97 96
95 92 86 90 89 89 88 95 95 90 86 91 96 96 92 89 98 95 100 99 99 95 99 87 99 98 97 97 96 95 86 96 96 99 95 85 81 85 86 89 88 88 94 98 98 96 93 94 95 96 96 98 97 96
96 97 88 93 88 94 98 81 78 80 72 74 63 68 91 88 83 81 80 78 91 92 96 94 96 96 98 95 92 87 94 98 100 99 100 89 91 94 95 95 96 97 97 96 96 96 96 96 96 95 96 96 95 96
95 96 97 92 91 98 97 95 88 91 81 67 65 64 74 85 84 82 81 90 99 100 96 98 96 92 90 85 78 88 93 96 99 100 99 98 98 96 96 96 96 96 96 96 96 96 97 97 97 97 96 95 96 97
93 95 96 96 94 94 95 90 95 86 68 62 63 73 90 96 99 92 84 85 96 100 97 96 91 83 78 76 87 92 95 100 98 97 98 97 96 96 96 97 98 99 98 96 96 97 97 96 96 96 96 96 96 96
98 96 89 93 97 89 84 79 79 76 64 61 72 79 89 92 97 97 95 95 97 100 96 95 93 85 89 93 95 97 95 96 96 96 96 96 96 96 96 97 96 97 97 97 97 96 97 96 96 96 97 97 96 96
94 96 95 82 92 95 88 83 70 70 65 70 83 89 96 98 100 99 100 100 100 97 94 89 89 94 92 93 95 95 94 94 95 96 96 96 96 96 96 96 97 97 97 97 97 97 97 96 97 98 97 96 90 54
95 95 96 92 98 98 93 83 76 74 78 85 92 97 98 97 99 98 97 96 96 95 96 94 93 95 94 93 90 88 92 96 98 99 99 99 99 98 98 98 98 98 98 98 98 98 98 98 98 92 62 30 23 20
97 93 96 93 92 98 96 86 81 72 89 91 93 98 99 97 96 93 92 93 93 95 95 94 92 87 79 79 84 89 95 100 100 100 98 98 97 97 97 97 97 97 97 97 97 97 92 58 36 28 24 21 19 18
96 96 98 98 96 94 85 86 80 81 88 92 95 96 94 90 92 94 95 96 96 96 82 78 79 79 81 84 90 95 96 96 95 94 94 95 96 96 96 97 97 97 98 96 74 47 36 31 26 22 20 19 19 18
94 90 86 97 100 94 83 86 82 84 87 91 96 92 93 94 94 96 94 90 81 73 74 82 86 89 94 96 96 96 95 95 95 95 96 96 98 98 96 90 77 61 51 44 39 33 27 22 20 20 20 19 15 13
67 64 67 77 79 88 98 97 88 85 97 98 97 96 94 81 76 81 73 57 60 72 80 85 89 90 91 93 94 91 91 84 76 72 69 66 62 57 54 49 45 42 38 32 26 22 21 22 22 19 15 14 16 18
32 33 34 57 78 88 92 88 87 88 97 93 83 76 71 61 45 50 50 57 59 65 71 72 71 70 63 65 65 66 68 72 74 74 69 56 50 47 45 43 39 30 23 21 23 25 24 19 16 16 18 20 24 21
26 24 51 70 76 82 85 84 80 72 68 61 52 44 34 34 30 42 41 41 44 39 40 41 39 40 45 50 58 64 72 74 66 55 48 51 51 49 38 24 21 23 26 27 24 19 16 18 20 22 25 24 19 18
16 13 13 41 54 50 52 47 43 31 20 15 16 16 13 9 11 16 20 21 23 24 26 32 38 44 50 53 55 56 49 46 47 51 51 42 26 20 22 27 30 28 24 20 18 20 21 22 25 26 22 19 20 20
12 10 11 14 16 18 19 16 11 8 7 7 7 6 5 5 6 10 12 15 19 21 23 27 30 32 32 33 33 34 39 43 42 28 18 20 28 32 33 31 26 22 21 21 22 23 25 27 27 22 20 22 22 21
8 7 7 7 7 8 8 7 6 6 6 6 6 5 5 5 6 8 8 11 12 13 16 19 19 20 21 23 24 25 23 17 17 26 32 32 33 34 33 29 25 24 24 24 25 27 28 28 23 21 22 22 21 21
8 7 7 7 7 7 6 6 6 6 6 6 6 5 5 5 5 6 6 7 8 10 12 13 15 16 16 16 16 19 27 31 31 31 32 33 34 34 32 30 28 27 28 28 28 28 29 23 22 23 23 22 23 23
8 8 8 8 8 7 7 7 7 6 5 5 5 5 5 5 6 6 7 8 10 11 12 14 16 18 20 24 28 30 30 30 31 33 35 35 34 32 32 31 30 30 30 30 30 29 23 22 24 24 24 24 25 24
8 8 8 8 8 8 7 6 5 5 5 5 5 6 6 6 7 7 8 10 12 14 16 18 22 24 26 28 28 29 31 32 34 36 37 36 34 33 33 32 32 32 32 32 31 25 25 27 27 26 27 27 27 26
9 9 8 8 9 7 6 5 5 5 5 5 6 6 7 7 8 8 10 12 14 17 19 22 24 25 26 28 30 32 33 34 36 39 40 39 37 37 37 37 37 36 36 31 26 27 29 28 28 28 29 28 27 26
10 9 8 8 7 6 5 5 5 6 6 6 7 7 7 8 9 10 12 13 16 19 21 23 24 25 28 30 32 32 32 33 35 39 41 42 41 41 41 39 38 36 28 28 30 30 29 30 30 30 29 28 29 30

GFSWCAN_700_rhum_075.txt.gz
RH
69 82 83 91 98 96 93 95 96 97 98 97 98 98 95 95 96 97 82 95 94 88 68 63 83 92 94 96 98 90 98 94 94 97 98 89 78 76 58 68 86 86 93 91 86 92 65 56 59 63 76 98 98 94
74 78 85 96 92 87 91 94 93 97 97 95 90 97 95 97 95 98 96 87 96 98 75 69 50 90 93 97 95 93 90 97 90 94 94 92 86 76 66 59 81 85 79 71 63 58 72 79 91 98 97 92 88 66
76 84 93 91 86 86 86 87 86 84 98 97 92 98 95 97 97 97 97 96 97 96 88 77 51 40 65 70 84 86 88 93 96 93 96 96 95 85 78 63 66 71 83 96 88 73 73 89 73 86 68 67 60 55
85 93 89 93 91 89 88 82 82 87 86 96 89 97 96 96 97 96 96 88 94 96 93 68 58 53 42 37 53 81 92 94 96 95 96 95 97 88 78 75 74 67 78 62 57 63 59 63 80 76 51 40 41 36
90 90 92 83 86 84 80 81 82 83 82 84 96 96 91 94 97 97 96 95 95 91 87 65 87 44 40 57 66 92 89 95 97 96 97 83 98 97 92 93 88 69 69 71 71 84 75 93 83 67 41 36 44 47
92 95 84 83 82 89 84 79 75 79 88 87 96 95 97 94 97 97 98 97 94 94 97 97 87 69 71 62 62 63 93 96 96 97 90 84 85 93 96 88 79 88 94 77 78 80 70 61 54 45 48 49 53 63
92 82 74 89 95 83 72 77 78 80 90 94 96 94 97 96 96 97 97 68 80 96 94 95 95 70 62 64 69 94 96 97 99 98 93 89 96 91 94 95 97 94 82 75 67 62 69 61 57 53 53 52 58 57
90 85 94 97 84 83 78 87 88 81 94 94 97 97 96 96 97 97 92 78 91 93 98 95 94 83 80 84 97 95 98 98 96 96 85 77 72 97 96 88 77 67 75 86 79 87 83 66 62 57 69 71 66 68
87 85 96 96 95 96 95 99 100 100 96 96 98 97 97 96 96 97 96 94 95 95 96 89 87 92 87 99 90 95 96 94 89 96 79 82 97 97 93 83 80 78 83 82 80 78 67 64 61 58 70 68 66 75
96 92 89 96 91 94 96 95 97 97 96 97 97 96 97 97 97 92 97 98 98 96 95 78 90 89 82 87 87 97 92 94 87 86 92 100 98 97 97 86 80 79 80 74 75 79 78 76 71 68 67 65 72 77
92 86 97 96 86 96 96 97 96 96 97 97 96 93 93 97 96 97 96 96 95 96 88 93 96 86 86 94 85 86 91 91 96 95 94 97 96 84 85 84 77 74 74 77 81 85 88 88 86 79 79 83 88 92
86 89 93 94 90 93 87 92 97 99 98 89 78 90 97 95 95 94 95 85 89 95 87 95 84 85 94 97 96 95 97 94 98 94 90 98 86 75 74 76 81 84 83 82 85 87 87 89 92 95 95 94 95 97
91 86 91 100 96 97 99 96 94 96 96 94 93 95 90 93 93 91 92 95 92 75 75 79 79 98 95 95 83 84 81 94 94 99 97 96 80 77 75 73 78 82 85 87 90 93 95 95 95 96 98 98 99 99
96 86 96 97 91 96 94 93 88 89 84 68 64 68 86 81 77 76 77 67 75 75 70 83 100 99 96 96 96 97 88 91 98 100 100 89 79 82 83 83 85 86 90 92 93 94 95 96 96 98 98 98 98 99
95 95 91 97 96 83 93 98 92 91 83 74 78 87 80 73 76 67 69 84 87 97 100 100 97 93 91 93 88 90 93 100 100 100 97 89 92 92 94 94 94 95 95 96 96 97 98 98 97 97 97 97 98 98
97 97 92 87 97 96 87 87 90 83 78 90 73 81 95 99 94 81 85 99 100 100 96 97 92 86 83 78 88 92 100 100 100 92 93 94 95 95 95 96 96 96 96 97 96 98 98 98 97 98 97 97 97 96
95 96 96 96 93 94 96 96 96 85 69 67 81 81 84 88 87 92 98 100 100 100 99 92 83 80 82 88 92 92 96 93 96 96 96 97 97 97 97 97 97 97 97 97 97 97 97 97 97 97 98 98 97 97
95 95 95 97 95 85 79 78 74 68 63 70 85 94 96 91 92 95 98 98 96 96 91 86 86 87 90 100 95 92 95 95 95 95 97 97 97 97 97 97 98 98 97 97 97 97 97 97 97 97 97 97 96 93
95 95 93 96 98 96 93 90 73 67 76 84 93 96 100 100 99 96 94 93 93 91 91 93 93 95 95 96 93 85 84 88 90 94 97 98 96 96 95 95 94 94 95 95 96 96 97 96 96 96 94 80 46 26
94 95 97 93 94 96 89 81 72 71 88 92 94 97 97 96 97 96 99 99 99 98 98 96 94 94 87 75 75 77 79 82 88 93 94 96 95 95 95 95 96 96 97 98 98 98 98 97 86 52 32 26 22 19
92 96 96 96 97 96 87 82 75 78 85 92 94 95 96 99 99 99 99 99 97 94 91 87 76 71 73 72 73 76 81 84 86 88 90 92 95 97 99 100 100 100 100 100 99 94 68 44 35 28 23 20 20 20
98 99 99 98 98 94 80 78 71 76 84 91 94 95 97 99 97 98 96 95 88 76 66 71 74 76 77 80 83 86 88 89 91 93 95 96 97 100 100 100 97 89 70 57 50 43 36 30 24 22 21 21 19 16
83 93 98 98 96 87 84 75 80 85 95 95 98 97 96 95 91 90 83 71 64 67 69 73 75 75 76 77 79 77 73 70 69 66 66 68 68 67 63 58 53 49 44 39 33 27 24 23 24 23 20 16 15 16
47 52 60 77 81 89 93 90 82 87 96 93 90 84 76 68 58 58 55 55 56 56 57 57 55 51 47 44 47 51 56 60 66 73 73 65 56 51 50 48 45 38 29 23 23 25 26 24 20 16 16 18 21 25
44 50 66 81 86 84 91 88 83 83 85 76 59 53 39 39 39 46 42 39 36 34 32 32 32 30 32 35 43 45 47 53 52 49 46 49 50 50 41 27 22 22 26 28 27 23 19 17 18 20 22 26 26 21
29 24 40 74 75 76 82 79 76 73 55 35 28 23 23 15 14 22 21 20 18 17 17 20 23 27 29 29 25 27 30 33 36 39 42 36 24 19 22 28 32 31 28 23 20 20 20 22 23 27 28 26 22 22
14 39 60 56 64 64 52 51 39 20 11 11 11 10 6 6 7 12 12 12 12 13 15 15 16 16 16 16 17 20 22 23 21 17 17 23 29 32 33 33 31 27 24 22 22 22 24 26 28 29 26 22 23 23
17 35 25 27 23 17 15 11 8 6 6 7 6 5 5 6 8 7 7 8 10 10 10 10 11 12 12 14 15 17 17 21 26 30 31 31 32 34 34 33 30 28 25 25 25 26 28 29 29 26 22 23 24 23
10 10 11 12 11 11 7 6 6 6 6 6 6 6 7 6 5 6 6 7 7 8 9 10 12 13 15 18 21 25 27 28 29 29 31 32 33 34 32 32 31 30 28 28 28 29 30 30 27 24 25 26 25 24
7 7 7 8 8 7 6 6 7 7 6 6 7 6 6 6 6 6 6 7 8 9 11 13 15 18 21 24 26 27 28 29 30 32 34 35 35 33 32 31 31 31 31 32 32 32 32 28 25 26 27 26 26 27
7 7 7 7 7 7 8 7 6 6 5 5 6 6 7 7 7 7 7 8 9 11 13 16 19 22 24 25 27 28 29 30 32 34 36 37 37 35 34 34 34 35 35 35 35 33 27 26 28 28 27 28 28 29
9 8 8 8 8 8 7 6 6 5 5 6 7 7 7 7 8 8 9 9 11 14 16 19 22 23 25 27 29 30 30 31 31 32 36 39 41 40 40 40 39 38 37 36 29 27 28 29 29 29 30 30 29 28
10 10 9 9 8 6 6 5 5 6 6 6 7 7 7 8 9 9 10 11 13 16 19 21 22 23 25 28 29 30 30 30 32 34 37 40 41 42 41 38 37 33 28 28 30 31 31 31 31 30 30 31 34 36